Location: Arthez
(43.0833°N, 0.2500°W)
Time: 01:05:07
(UTC+00:00)

Cosmos 1459 Rocket - Pass Details

Date: 23 October 2021
Orbit: 937 x 1000 km, 83.0° (Epoch: 06 December)

Event Time Altitude Azimuth Distance (km) Brightness Sun altitude
Rises 19:35:52 0° 185° (S) 3,665 7.0 -28.1°
Reaches altitude 10° 19:38:23 10° 185° (S) 2,713 6.3 -28.5°
Enters shadow 19:41:47 35° 186° (S) 1,509 4.9 -29.1°
Exits shadow 19:45:18 72° 9° (N) 1,009 3.9 -29.7°
Drops below altitude 10° 19:50:46 10° 8° (N) 2,688 6.3 -30.7°
Sets 19:53:15 0° 8° (N) 3,630 7.1 -31.2°
